Location: Unspecified
(35.7250°N, 0.0000°E)
Time: 11:35:44
(UTC+00:00)

Vanguard 1 Rocket - Pass Details

Date: 16 June 2019
Orbit: 651 x 4225 km, 34.3° (Epoch: 21 July)

Event Time Altitude Azimuth Distance (km) Brightness Sun altitude
Rises 17:18:28 0° 228° (SW) 7,553 12.6 21.6°
Reaches altitude 10° 17:24:35 10° 223° (SW) 6,006 12.0 20.4°
Maximum altitude 17:39:36 45° 158° (SSE) 2,477 9.5 17.5°
Drops below altitude 10° 17:47:37 10° 89° (E) 3,297 9.8 15.9°
Sets 17:49:57 0° 82° (E) 3,971 10.1 15.5°
